Location: Kopernik Observatory
(42.0014°N, 76.0372°W)
Time: 01:08:52
(UTC-05:00)

Daily predictions for brighter satellites

Satellite Brightness Start Highest point End
(mag) Time Altitude Azimuth Time Altitude Azimuth Time Altitude Azimuth
CZ-3 R/B 4.2 03:05:09 52° SSW 03:06:56 53° S 03:18:07 10° ESE
ADEOS II 4.2 03:28:31 10° NNE 03:29:58 19° NNE 03:29:58 19° NNE
Okean O Rocket 3.0 03:57:39 10° NNE 04:01:00 37° ENE 04:01:00 37° ENE
Cosmos 158 Rocket 4.5 04:08:59 54° ESE 04:08:59 54° ESE 04:13:14 10° SSE
Cosmos 1980 Rocket 2.3 04:12:53 70° SE 04:13:14 72° ESE 04:18:53 10° NNE
Cosmos 1821 Rocket 3.8 04:13:54 77° SSW 04:14:24 88° W 04:20:42 10° N
ATLAS 5 CENTAUR R/B 3.2 04:18:04 27° SE 04:19:21 31° ESE 04:23:37 10° NE
PAYLOAD B 4.4 04:16:24 10° NNE 04:21:55 71° ESE 04:24:12 36° S
MOS 1-B 4.3 04:17:11 10° N 04:22:30 66° NW 04:22:30 66° NW
Cosmos 1535 Rocket 4.3 04:25:30 49° SSW 04:27:19 83° W 04:33:27 10° N
Cosmos 1048 Rocket 4.2 04:25:12 10° NNW 04:30:20 66° ENE 04:35:24 10° SSE
Cosmos 372 Rocket 4.0 04:32:35 51° S 04:33:51 78° ESE 04:39:00 10° NNE
IDEFIX/ARIANE 42P 4.2 04:32:31 10° NNE 04:37:14 33° E 04:41:53 10° SSE
SJ 16-02 1.4 04:39:17 68° N 04:39:17 68° N 04:43:13 10° NNE
BREEZE-M DEB (TANK) 3.3 04:39:13 35° NNE 04:39:34 36° NNE 04:45:17 10° E
Cosmos 1733 Rocket 4.3 04:37:33 10° N 04:41:44 42° ENE 04:45:55 10° SSE
Cosmos 1697 Rocket 3.3 04:43:04 39° NW 04:43:04 39° NW 04:47:48 10° N
USA 215 3.9 04:39:56 10° S 04:45:00 33° SW 04:45:00 33° SW
Cosmos 1125 Rocket 3.3 04:46:13 43° SSW 04:47:58 81° WNW 04:53:12 10° NNE
SL-16 R/B 3.1 04:45:21 10° S 04:50:45 48° ESE 04:56:12 10° NE
Meteor 1-31 Rocket 3.0 04:48:14 10° N 04:51:26 56° NNW 04:51:26 56° NNW
Cosmos 1933 3.2 04:52:46 67° SW 04:53:14 79° W 04:57:19 10° N
Hubble Space Telescope 3.1 04:53:32 12° S 04:53:32 12° S 04:55:09 10° SSE
SJ-6F 4.2 04:50:42 10° N 04:54:47 77° WNW 04:55:44 51° SSW
COSMO-SKYMED 1 3.6 04:51:47 10° SE 04:55:56 48° ENE 05:00:07 10° N
Cosmos 1605 Rocket 3.8 04:53:59 10° S 05:00:06 79° W 05:06:13 10° N
CZ-2C R/B 3.9 04:57:15 10° NNE 05:02:03 39° E 05:06:53 10° SSE
Okean-O 3.9 04:57:53 10° NNE 05:02:06 41° E 05:06:16 10° S
Aureole 3 4.3 05:03:31 10° N 05:06:19 36° E 05:09:18 10° SSE
CZ-2C R/B 3.6 05:06:16 10° SSE 05:10:56 84° WSW 05:15:33 10° NNW
ADEOS II 4.1 05:10:18 10° NNW 05:10:56 11° NW 05:10:56 11° NW
Meteor 1-26 Rocket 4.4 05:06:58 10° S 05:12:50 82° E 05:18:40 10° NNE
COSMOS 2455 2.8 05:08:00 10° NW 05:13:55 59° WSW 05:19:49 10° SSE
CZ-4B R/B 3.4 05:11:30 10° N 05:16:43 47° WNW 05:21:43 11° SW
Cosmos 1707 Rocket 4.4 05:17:09 30° WNW 05:17:09 30° WNW 05:20:51 10° NNW
Cosmos 1606 4.1 05:13:51 10° SSE 05:17:26 40° E 05:21:00 10° NNE
Feng Yun 1-1 Rocket 4.5 05:15:04 10° NNE 05:20:39 76° ESE 05:26:24 10° S
Cosmos 494 Rocket 4.2 05:17:35 10° NNW 05:22:44 73° ENE 05:27:49 10° SSE
Cosmos 1633 3.2 05:20:09 10° N 05:23:46 57° E 05:27:22 10° SSE
Cosmos 1437 Rocket 4.4 05:21:25 10° N 05:25:14 38° ENE 05:28:57 10° SE
SKYMED 3 4.4 05:21:32 10° S 05:25:52 80° WSW 05:30:14 10° NNW
IRS-1C Rocket 4.3 05:22:40 10° N 05:27:43 46° WNW 05:32:42 10° SW
Cosmos 2263 Rocket 2.3 05:22:56 10° NNW 05:28:39 82° ENE 05:34:20 10° SSE
Cosmos 1459 Rocket 4.4 05:22:59 10° S 05:29:11 70° E 05:35:30 10° NNE
Cosmos 2173 Rocket 4.2 05:26:33 10° S 05:32:41 73° E 05:38:48 10° NNE
Cosmos 1269 Rocket 4.3 05:30:15 10° NNW 05:35:12 42° WSW 05:40:08 10° S
Okean O Rocket 3.0 05:34:46 10° NNW 05:37:57 20° WNW 05:38:29 19° WNW
Cosmos 405 Rocket 3.1 05:34:45 10° SSW 05:38:28 40° WNW 05:42:09 10° N
Cosmos 1802 Rocket 4.4 05:34:15 10° S 05:40:37 72° E 05:46:55 10° NNE
Cosmos 2061 Rocket 4.3 05:35:11 10° S 05:41:20 73° E 05:47:31 10° NNE
Meteor 1-14 Rocket 4.3 05:35:57 10° NNW 05:41:56 72° W 05:47:47 10° S
Radarsat Rocket 4.0 05:37:46 10° NNE 05:43:39 89° W 05:49:55 10° SSW
SKYMED 2 3.7 05:39:44 10° S 05:43:56 49° W 05:48:10 10° NNW
Cosmos 374 Rocket 4.5 05:42:51 10° NW 05:47:02 52° WSW 05:50:45 10° SSE
Cosmos 2322 Rocket 2.2 05:41:57 10° SW 05:47:34 61° WNW 05:53:14 10° NNE
PAYLOAD A 4.0 05:44:24 10° N 05:49:05 54° WNW 05:53:54 10° SSW
Cosmos 405 4.3 05:49:20 10° NW 05:51:59 20° W 05:54:37 10° SW
NOAA 6 4.2 05:47:14 10° N 05:52:13 50° WNW 05:57:09 10° SW
ISS -1.0 05:51:03 10° S 05:53:22 18° SE 05:55:40 10° E
Sich 1 Rocket 3.7 05:49:28 10° N 05:53:52 82° E 05:58:15 10° S
Cosmos 2360 Rocket 2.7 05:49:31 10° SSW 05:55:08 67° ESE 06:00:46 10° NNE
DMSP B5D1-3 4.5 05:51:50 10° S 05:56:53 67° WSW 06:01:59 10° NNW
Cosmos 1980 Rocket 3.6 05:54:41 13° W 05:57:50 19° NW 06:01:51 10° N
EO 1 Del DPAF 3.2 05:57:12 10° S 06:00:59 61° WSW 06:04:48 10° NNW
Landsat 4 4.0 05:58:38 10° S 06:02:12 44° W 06:05:47 10° NNW
Cosmos 1703 Rocket 3.5 05:58:12 10° S 06:02:40 79° W 06:07:11 10° N
Cosmos 1461 3.1 05:58:38 10° SSW 06:02:57 85° ESE 06:07:32 10° NE
Meteor 1-25 Rocket 4.4 05:57:50 10° NNW 06:03:22 51° W 06:08:57 10° SSW
ATLAS 5 CENTAUR R/B 2.5 05:59:44 10° WSW 06:03:55 33° NW 06:08:31 10° NNE
Okean 2 Rocket 4.3 06:00:01 10° N 06:04:23 48° ENE 06:08:45 10° SSE
Lacrosse 4 Rocket 3.4 06:07:15 10° S 06:10:53 33° ESE 06:14:33 10° NE
Cosmos 1908 Rocket 3.9 06:12:16 10° NNW 06:16:24 41° W 06:20:28 10° SSW
IDEFIX/ARIANE 42P 3.3 06:12:12 10° N 06:16:45 31° WNW 06:21:16 10° SW
Aureole 2 Rocket 1.9 06:15:05 10° SW 06:17:42 49° WNW 06:20:24 10° N
Meteor 1-11 Rocket 4.3 06:14:26 10° N 06:20:22 70° E 06:26:19 10° SSE
